OPS 4682 DEB, 38452

Orbit data source: Space-Track

OPS 4682 DEB, 38452 is space debris in LEO originally from a launch on Sat, 03 Apr 1965 UTC launched from the Air Force Western Test Range (AFWTR). Debris objects in space refer to the collection of defunct objects orbiting the Earth. Examples of debris include non-operational satellites, rocket bodies, and fragments generated from explosions, collisions, or faulty payload assembly.

Loading next visibility...
Identifier
38452, 1965-027FH
Orbit
LEO
Country
Flag of USUS
Related business
Manufacturer
Unknown
Mission
Spacecraft
Bus & Motor
Unknown
Mass
Unknown
Launch date (UTC)
1965-04-03 (61 years ago)
Launch vehicle
Unknown
Launch site
Air Force Western Test Range (AFWTR)
Object type
Payload
Rocket body
Debris
Shape & HBR
Unknown shape, 0.1 m
Radar Cross Section
Small (<0.1 m²)

Expand to show TLE details & history
Last TLE update: 4 days ago

TLE from 4 days ago
0 OPS 4682 DEB
1 38452U 65027FH  25298.44187060  .00000174  00000-0  60254-3 0  9990
2 38452  90.2500 358.2773 0017346  66.0799 294.2134 12.93914528592749
Epoch: 2025-10-25T10:36Z
TLE epoch observation values (Epoch: 2025-10-25T10:36:17.619Z)
Latitude
-0.00009°
Longitude
165.13152°
Altitude
1,283.464 km
Speed
7.217 km/s
True Right ascension
23h 53m 06s
True Declination
0° 00' 00"
Sunlit
Object was in full shadow at epoch
Visualization orbit readout
Latitude
Unknown
Longitude
Unknown
Altitude
Unknown
Speed
Unknown
Apparent Right ascension
Unknown
Apparent Declination
Unknown
Sunlit
N/A
Visualization observer readout
Local Sidereal Time
10:37:06
Azimuth
Unknown
Elevation
Unknown
Doppler factor
Unknown
Orbital elements
Apogee altitude
1,296.449 km
Perigee altitude
1,269.87 km
Semi-major axis
7,661.296 km
Eccentricity
0.00173
Inclination
90.25°
RAAN
358.2773°
Arg. of periapsis
66.0799°
True anomaly
294.03196°
Mean anomaly
294.2134°
Eccentric anomaly
294.12269°
Mean motion
3.23661 °/min
Orbital period
111.23 mins
BSTAR
0.00060254
Loading maneuver chart data...
Computing Atmospheric mass density...
Loading historical data...
Loading historical data...
Loading historical data...
Loading historical data...
Loading historical data...
Loading historical data...
Loading historical data...

Documentation

Showing up to 5 results
|